Location: Casa Rossa
(45.2389°N, 12.2056°E)
Time: 23:55:42
(UTC+00:00)

Iridium 4 Rocket - Pass Details

Date: 14 July 2020
Orbit: 583 x 906 km, 86.9° (Epoch: 14 August)

Event Time Altitude Azimuth Distance (km) Brightness Sun altitude
Exits shadow 00:24:13 42° 220° (SW) 1,206 4.0 -21.4°
Maximum altitude 00:25:54 58° 275° (W) 976 3.9 -21.3°
Drops below altitude 10° 00:31:12 10° 355° (N) 2,374 7.0 -21.0°
Sets 00:33:31 0° 359° (N) 3,259 8.0 -20.9°
